ONEWEB-0208, 48243

Orbit data source: Space-Track

ONEWEB-0208, 48243 is a payload satellite owned by One Web (NAA) (UK) in LEO that was launched on Sun, 25 Apr 2021 UTC via a SOYUZ-2-1B launch vehicle from the Vostochny Cosmodrome (VOSTO). Payload-class satellites include a variety of spacecraft equipped with specific instruments for various scientific and technological missions. These include communications satellites like Starlink; space stations such as the ISS; scientific satellites like the Hubble; Earth observation satellites from companies like Planet Labs, Umbra, and HawkEye 360; GPS; miniature CubeSats for education and research; and military/defense satellites.

Loading next visibility...
Identifier
48243, 2021-031AK
Orbit
LEO
Country
Flag of UKUK
Related business
Manufacturer
One Web
Mission
Operational Commercial Communications
Bus & Motor
ARROW, Unknown motor
Mass
148 kg wet, ~140 kg dry
Launch date (UTC)
2021-04-25 (5 years ago)
Launch vehicle
SOYUZ-2-1B
Launch site
Vostochny Cosmodrome (VOSTO)
Object type
Payload
Rocket body
Debris
Shape & HBR
Trap Box + 2 Pan, 6.7 m
Radar Cross Section
3.464 m², Large (>1 m²)

Expand to show TLE details & history
Last TLE update: 1 day ago

TLE from 1 day ago
0 ONEWEB-0208
1 48243U 21031AK  25305.49165479 -.00000171  00000-0 -49643-3 0  9998
2 48243  87.9013 335.0655 0002047  92.8747 267.2617 13.14500822218398
Epoch: 2025-11-01T11:47Z
TLE epoch observation values (Epoch: 2025-11-01T11:47:58.973Z)
Latitude
-0.00004°
Longitude
117.04881°
Altitude
1,208.766 km
Speed
7.25 km/s
True Right ascension
22h 20m 15s
True Declination
0° 00' 00"
Sunlit
Object was in daylight at epoch
Visualization orbit readout
Latitude
Unknown
Longitude
Unknown
Altitude
Unknown
Speed
Unknown
Apparent Right ascension
Unknown
Apparent Declination
Unknown
Sunlit
N/A
Visualization observer readout
Local Sidereal Time
09:12:11
Azimuth
Unknown
Elevation
Unknown
Doppler factor
Unknown
Orbital elements
Apogee altitude
1,204.463 km
Perigee altitude
1,201.36 km
Semi-major axis
7,581.049 km
Eccentricity
0.0002
Inclination
87.9013°
RAAN
335.0655°
Arg. of periapsis
92.8747°
True anomaly
267.23827°
Mean anomaly
267.2617°
Eccentric anomaly
267.24999°
Mean motion
3.28813 °/min
Orbital period
109.48 mins
BSTAR
-0.00049643
Loading maneuver chart data...
Computing Atmospheric mass density...
Loading historical data...
Loading historical data...
Loading historical data...
Loading historical data...
Loading historical data...
Loading historical data...
Loading historical data...

Documentation

Showing up to 5 results
|